weather.gov     
National Weather Service

Terminal Aerodrome Forecast
NWS Homepage
This page is being discontinued on March 12, 2014.
The same data is available at this site. Please update your bookmarks.
Thank you, and we apologize for the inconvenience.
Please send an email to SR-SRH.Webmaster@noaa.gov with any concerns.


Current Version
Previous Version:    01  02  03  04  05  06  07  08  09  10  11  12  13  14  15  16  17  18  19  20  21  22  23  24  25  26  27  28  29  30  
   31  32  33  34  35  
[Printable]
203
FTUS42 KTBW 231100
TAFFMY
TAF
KFMY 231139Z 2312/2412 13008KT P6SM FEW005 SCT015
      TEMPO 2312/2314 BKN015
     FM231400 15014G22KT P6SM SCT015 BKN030
     FM231800 18015G25KT P6SM SCT035 SCT250
     FM232300 17008KT P6SM SCT030 BKN250
     FM240300 16005KT 6SM BR SCT010 BKN250
     FM240700 VRB03KT 3SM BR SCT005 BKN010=


U.S. Dept. of Commerce
NOAA National Weather Service
1325 East West Highway
Silver Spring, MD 20910
E-mail: w-nws.webmaster@noaa.gov
Page last modified: May 16, 2007
NATIONAL WEATHER SERVICE: for Safety, for Work, for Fun - FOR LIFE